Flag for Austria Weather past 2 weeks in Linz, Upper Austria, Austria

Now
43 °F

Quite cool.


Feels Like: 43 °F
Forecast: 37 / 63 °F
Wind: 2 mph from North

Location: Linz / Hoersching-Flughafen

Current Time: Sep 24, 2014 at 1:17:54 AM

Latest Report: Sep 24, 2014 at 12:50 AM


Visibility: N/A

Pressure: 30.12 "Hg

Humidity: 93%

Dew point: 41 °F

Location of LinzLocation

Historic Weather in Linz — Graph

°F

Linz temperature yesterday

Maximum temperature yesterday: 59 °F (at 4:50 PM)
Minimum temperature yesterday: 43 °F (at 11:50 PM)
Average temperature yesterday: 51 °F

Past Weeks' High & Low Weather Summary

 TemperatureHumidityPressure
High75 °F (Sep 9, 3:20 PM)100% (Sep 9, 1:50 AM)30.15 "Hg (Sep 9, 1:50 AM)
Low43 °F (Sep 23, 11:50 PM)41% (Sep 17, 3:20 PM)29.89 "Hg (Sep 12, 4:20 AM)
Average60 °F82%30.00 "Hg
* Reported Sep 8 11:20 PM — Sep 23 11:50 PM, Linz, Weather by CustomWeather, © 2014

Note: Actual official high and low records may vary slightly from our data, if they occured in-between our weather recording intervals... More about our weather records

Advertising

Linz weather history for previous 24 hours

 ConditionsComfort  
Time TempWeatherWind HumidityBarometerVisibility
11:50 PM
Sep 23
43 °FQuite cool.3 mph100%30.12 "HgN/A
11:20 PM45 °FClear.3 mph93%30.12 "Hg10 mi
10:50 PM45 °FClear.2 mph93%30.12 "Hg10 mi
10:20 PM45 °FClear.5 mph93%30.12 "Hg10 mi
9:50 PM46 °FClear.2 mph87%30.12 "Hg10 mi
9:20 PM46 °FClear.1 mph87%30.12 "Hg10 mi
8:50 PM46 °FClear.3 mph87%30.12 "Hg10 mi
8:20 PM48 °FClear.1 mph82%30.12 "Hg10 mi
7:50 PM50 °FSunny.1 mph82%30.09 "Hg10 mi
7:20 PM52 °FPassing clouds.2 mph72%30.09 "HgN/A
6:50 PM54 °FPassing clouds.2 mph67%30.09 "HgN/A
6:20 PM57 °FPassing clouds.6 mph59%30.09 "HgN/A
5:50 PM57 °FPassing clouds.10 mph55%30.09 "HgN/A
5:20 PM59 °FScattered clouds.12 mph51%30.12 "HgN/A
4:50 PM59 °FPassing clouds.10 mph55%30.12 "HgN/A
4:20 PM57 °FScattered clouds.13 mph55%30.12 "HgN/A
3:50 PM57 °FScattered clouds.16 mph55%30.12 "HgN/A
3:20 PM57 °FScattered clouds.17 mph59%30.12 "HgN/A
2:50 PM57 °FScattered clouds.18 mph59%30.15 "HgN/A
2:20 PM55 °FScattered clouds.16 mph67%30.15 "HgN/A
1:50 PM55 °FScattered clouds.18 mph63%30.15 "HgN/A
1:20 PM55 °FPartly sunny.20 mph63%30.15 "HgN/A
12:50 PM54 °FPartly sunny.16 mph72%30.15 "HgN/A
12:20 PM54 °FBroken clouds.16 mph72%30.15 "HgN/A
11:50 AM54 °FBroken clouds.17 mph72%30.15 "HgN/A
11:20 AM52 °FBroken clouds.18 mph77%30.15 "HgN/A
10:50 AM52 °FBroken clouds.17 mph77%30.15 "HgN/A
10:20 AM50 °FBroken clouds.18 mph82%30.15 "HgN/A
9:50 AM50 °FBroken clouds.18 mph82%30.15 "HgN/A
9:20 AM50 °FSprinkles. Broken clouds.18 mph82%30.12 "HgN/A
8:50 AM50 °FBroken clouds.18 mph82%30.12 "HgN/A
8:20 AM48 °FPartly sunny.16 mph87%30.09 "HgN/A
7:50 AM48 °FPartly sunny.15 mph87%30.09 "HgN/A
7:20 AM48 °FPartly cloudy.17 mph87%30.09 "HgN/A
6:50 AM48 °FPartly cloudy.18 mph87%30.07 "HgN/A
6:20 AM48 °FPartly cloudy.16 mph87%30.07 "HgN/A
5:50 AM48 °FSprinkles. Partly cloudy.14 mph87%30.07 "HgN/A
5:20 AM48 °FPassing clouds.17 mph87%30.04 "HgN/A
4:50 AM48 °FPartly cloudy.17 mph87%30.04 "HgN/A
4:20 AM48 °FPartly cloudy.16 mph82%30.04 "HgN/A
3:50 AM48 °FPartly cloudy.15 mph87%30.04 "HgN/A
3:20 AM48 °FSprinkles. Partly cloudy.18 mph87%30.04 "Hg6 mi
2:50 AM48 °FLight rain. Partly cloudy.17 mph82%30.04 "HgN/A
2:20 AM48 °FPartly cloudy.18 mph82%30.07 "HgN/A
1:50 AM48 °FPartly cloudy.16 mph82%30.07 "HgN/A
1:20 AM48 °FPassing clouds.14 mph82%30.07 "HgN/A
Weather by CustomWeather, © 2014

See weather overviewHow to use our weather pages